Tracking 32577 objects as of 15-Dec-2025
HD Live streaming from Space Station
objects crossing your sky now

STARLINK-33718

Track STARLINK-33718 now!
10-day predictions
STARLINK-33718 is classified as:


NORAD ID: 63476
Int'l Code: 2025-070S
Perigee: 489.5 km
Apogee: 491.2 km
Inclination: 43.0 °
Period: 94.3 minutes
Semi major axis: 6861 km
RCS: Unknown
Launch date: April 6, 2025
Source: United States (US)
Launch site: AIR FORCE EASTERN TEST RANGE (AFETR)
Your satellite tracking list
Your tracking list is empty




NASA's NSSDC Master Catalog

Two Line Element Set (TLE):
1 63476U 25070S   25348.12349699  .00034222  00000-0  12492-2 0  9998
2 63476  42.9990  22.7314 0001222 293.3247  66.7476 15.27532203 39892
Source of the keplerian elements: AFSPC